STARLINK-11451 [DTC] (62561 NORAD) Tracking and Keplerian Element Data

This shows tracking and keplerian element data for the satellite.

Feedback or suggestion? Click here.




ElementValue
Catalog62561
NameSTARLINK-11451 [DTC]
Epoch Orbit5408
Epoch Day354.07644376
Epoch Year2025
RAAN259.5676
Inclination42.9998
Eccentricity0.0002102
Argument of Perigee330.3975
Mean Anonmoly29.6774
Mean Motion15.70954497
Decay Rate0.00140147
L11 62561U 25006H 25354.07644376 .00140147 00000+0 10722-2 0 9999
L22 62561 42.9998 259.5676 0002102 330.3975 29.6774 15.70954497 54081



Live tracking and technical data element details for STARLINK-11451 [DTC] (NORAD 62561). STARLINK-11451 [DTC] can be tracked NOW for your location showing map with azimuth and elevation plus other details from your city location.







IsCatalogInMostPopularTable: catalog: 62561, numindb: 73
Update: records affected: 1



GetName: 62561 STARLINK-11451 [DTC]

Hit Count: updated at: Tue, 10 Feb 2026 02:07:14 GMT